This demonstration page uses our WeatherBlox Daily Observations layout. Learn more.

Left ArrowRight Arrow

39.51506, -84.39828

Hourly Observations for June 30, 2018

Temp ( °F °C ) Dew Point ( °F °C ) Humidity (%) Winds ( mph kmh ) Pressure ( in mb ) Visibility ( mi km ) Precip ( " mm )
12:15 am 00:15 Clear 71 21.7 69 20.8 95 95 N N/A 30.03 1017 10 16 N/A
12:35 am 00:35 Clear 71 21.7 70 20.9 95 95 N N/A 30.03 1017 10 16 N/A
12:55 am 00:55 Clear 71 21.4 69 20.7 96 96 N N/A 30.03 1017 10 16 N/A
1:15 am 01:15 Clear 70 20.9 69 20.4 97 97 N N/A 30.03 1017 10 16 N/A
1:35 am 01:35 Clear 70 21.3 69 20.7 96 96 N N/A 30.03 1017 10 16 N/A
1:55 am 01:55 Clear 69 20.8 69 20.3 97 97 NNW 3 6 30.03 1017 10 16 N/A
2:15 am 02:15 Clear 69 20.5 68 20.1 98 98 N N/A 30.03 1017 7 11 N/A
2:35 am 02:35 Mostly Cloudy with Mist and Fog 68 20 67 19.7 98 98 N N/A 30.03 1017 1 2 N/A
2:55 am 02:55 Clear with Mist and Fog 69 20.5 69 20.3 99 99 N N/A 30.03 1017 5 8 N/A
3:15 am 03:15 Clear 68 20.1 68 19.9 99 99 N N/A 30.03 1017 7 11 N/A
3:35 am 03:35 Clear with Mist and Fog 67 19.7 67 19.5 99 99 N N/A 30.00 1016 5 8 N/A
3:55 am 03:55 Clear with Mist and Fog 67 19.7 67 19.6 99 99 N N/A 30.03 1017 4 6 N/A
4:15 am 04:15 Clear with Mist and Fog 67 19.7 67 19.6 99 99 N N/A 30.00 1016 4 6 N/A
4:35 am 04:35 Clear with Mist and Fog 67 19.6 67 19.5 99 99 N N/A 30.03 1017 4 6 N/A
4:55 am 04:55 Clear with Mist and Fog 67 19.3 67 19.2 99 99 N N/A 30.03 1017 4 6 N/A
5:15 am 05:15 Mostly Cloudy with Mist and Fog 66 19.1 66 18.9 99 99 N N/A 30.03 1017 2 3 N/A
5:35 am 05:35 Mostly Cloudy with Fog 66 19.1 66 19 99 99 N N/A 30.03 1017 1 1 N/A
5:55 am 05:55 Mostly Cloudy with Fog 66 18.7 65 18.6 99 99 N N/A 30.03 1017 1 1 N/A
6:15 am 06:15 Mostly Cloudy with Fog 66 18.8 66 18.7 99 99 N N/A 30.03 1017 5 8 N/A
6:35 am 06:35 Sunny with Mist and Fog 66 18.8 66 18.7 99 99 N N/A 30.03 1017 2 3 N/A
6:55 am 06:55 Sunny with Mist and Fog 67 19.2 66 19.1 99 99 NNE 3 6 30.03 1017 4 6 N/A
7:15 am 07:15 Sunny with Mist and Fog 68 19.9 68 19.8 99 99 N N/A 30.03 1017 5 8 N/A
7:35 am 07:35 Sunny with Mist and Fog 70 21.2 70 20.9 98 98 N N/A 30.06 1018 7 11 N/A
7:55 am 07:55 Sunny 72 22.3 70 21.3 94 94 N N/A 30.06 1018 7 11 N/A
8:15 am 08:15 Sunny 74 23.2 71 21.7 91 91 N N/A 30.06 1018 10 16 N/A
8:35 am 08:35 Sunny 76 24.4 72 22 87 87 N N/A 30.06 1018 10 16 N/A
8:55 am 08:55 Sunny 78 25.5 72 22.2 82 82 SW 3 6 30.06 1018 10 16 N/A
9:15 am 09:15 Sunny 80 26.8 72 22 75 75 SW 5 7 30.06 1018 10 16 N/A
9:35 am 09:35 Sunny 81 27.1 72 22.2 75 75 S 6 9 30.06 1018 10 16 N/A
9:55 am 09:55 Sunny 82 27.9 72 22.2 71 71 SW 7 11 30.06 1018 10 16 N/A
10:15 am 10:15 Sunny 83 28.5 73 22.7 71 71 SSW 6 9 30.06 1018 10 16 N/A
10:35 am 10:35 Sunny 85 29.2 72 22.4 67 67 SSW 8 13 30.03 1017 10 16 N/A
10:55 am 10:55 Sunny 85 29.5 72 22.2 65 65 WSW 10 17 30.03 1017 10 16 N/A
11:15 am 11:15 Sunny 86 30 72 22 62 62 SSW 10 17 30.03 1017 10 16 N/A
11:35 am 11:35 Sunny 86 30.1 72 22.3 63 63 SW 7 11 30.03 1017 10 16 N/A
11:55 am 11:55 Sunny 87 30.5 73 22.5 62 62 WSW 7 11 30.03 1017 10 16 N/A
12:15 pm 12:15 Sunny 88 30.9 72 22 59 59 W 7 11 30.03 1017 10 16 N/A
12:35 pm 12:35 Sunny 88 31.2 72 22 58 58 S 3 6 30.03 1017 10 16 N/A
12:55 pm 12:55 Sunny 88 31.3 71 21.5 56 56 WSW 6 9 30.03 1017 10 16 N/A
1:15 pm 13:15 Sunny 88 31.2 70 21.3 56 56 N N/A 30.03 1017 10 16 N/A
1:35 pm 13:35 Sunny 89 31.7 72 22 56 56 NW 5 7 30.03 1017 10 16 N/A
1:55 pm 13:55 Sunny 90 32 71 21.5 54 54 N N/A 30.03 1017 10 16 N/A
2:15 pm 14:15 Sunny 90 32.4 72 22.1 55 55 SW 3 6 30.03 1017 10 16 N/A
2:35 pm 14:35 Sunny 91 32.6 70 21.3 51 51 N N/A 30.03 1017 10 16 N/A
2:55 pm 14:55 Sunny 91 32.7 70 21.2 51 51 N N/A 30.00 1016 10 16 N/A
3:15 pm 15:15 Sunny 91 32.7 71 21.4 51 51 SSW 7 11 30.00 1016 10 16 N/A
3:35 pm 15:35 Sunny 91 32.9 71 21.7 52 52 W 6 9 30.00 1016 10 16 N/A
3:55 pm 15:55 Sunny 92 33.2 70 21 49 49 SW 7 11 30.00 1016 10 16 N/A
4:15 pm 16:15 Sunny 92 33.4 70 20.9 48 48 SW 8 13 30.00 1016 10 16 N/A
4:35 pm 16:35 Partly Cloudy 92 33.6 70 21.2 48 48 SW 6 9 30.00 1016 10 16 N/A
4:55 pm 16:55 Mostly Cloudy 92 33.4 70 21.1 48 48 E 5 7 29.97 1015 10 16 N/A
5:15 pm 17:15 Mostly Cloudy 93 33.8 70 21.3 48 48 S 5 7 29.97 1015 10 16 N/A
5:35 pm 17:35 Partly Cloudy 91 32.5 71 21.9 54 54 SE 8 13 29.97 1015 10 16 N/A
5:55 pm 17:55 Sunny 90 32 71 21.9 55 55 ESE 3 6 29.97 1015 10 16 N/A
6:15 pm 18:15 Sunny 90 32.4 71 21.6 53 53 ESE 8 13 29.97 1015 10 16 N/A
6:35 pm 18:35 Sunny 90 32 70 21.3 53 53 SE 8 13 29.94 1014 10 16 N/A
6:55 pm 18:55 Sunny 91 32.6 70 21.3 51 51 SE 7 11 29.94 1014 10 16 N/A
7:15 pm 19:15 Sunny 90 32.4 70 21.3 52 52 SE 7 11 29.94 1014 10 16 N/A
7:35 pm 19:35 Sunny 89 31.8 69 20.6 51 51 SE 9 15 29.94 1014 10 16 N/A
8:15 pm 20:15 Sunny 87 30.8 70 21.3 57 57 SE 7 11 29.94 1014 10 16 N/A
8:35 pm 20:35 Sunny 87 30.6 70 20.9 56 56 ESE 7 11 29.94 1014 10 16 N/A
8:55 pm 20:55 Sunny 85 29.7 70 20.9 59 59 ESE 6 9 29.94 1014 10 16 N/A
9:15 pm 21:15 Clear 85 29.3 69 20.8 60 60 ESE 5 7 29.94 1014 10 16 N/A
9:35 pm 21:35 Clear 83 28.5 69 20.6 62 62 SE 5 7 29.94 1014 10 16 N/A
9:55 pm 21:55 Clear 83 28.1 68 20.1 62 62 SSE 3 6 29.94 1014 10 16 N/A
10:15 pm 22:15 Clear 76 24.2 71 21.8 87 87 N N/A 29.97 1015 10 16 N/A
10:35 pm 22:35 Clear 74 23.5 71 21.6 89 89 N N/A 29.97 1015 10 16 N/A
10:55 pm 22:55 Clear 74 23.1 71 21.5 91 91 N 3 6 30.00 1016 10 16 N/A
11:15 pm 23:15 Clear 74 23.3 71 21.9 92 92 NNE 3 6 30.00 1016 10 16 N/A
11:35 pm 23:35 Clear 72 22 70 21.1 95 95 N N/A 29.97 1015 10 16 N/A
11:55 pm 23:55 Clear 72 22 70 21.1 95 95 NNW 3 6 29.97 1015 10 16 N/A

Powered by AerisWeather